Regional Weather Roundup
Issued by NWS

Home | Current Version | Previous Version | Text Only | Print | Product List | Glossary Off
Versions: 1 2 3 4 5 6 7 8 9 10 11 12 13 14 15 16 17 18 19 20 21 22 23 24 25 26 27 28 29 30 31 32 33 34 35 36 37 38 39 40 41 42 43 44 45 46 47 48 49 50

000
ASUS43 KMPX 150101
RWRMN
WEATHER ROUNDUP FOR MINNESOTA
NATIONAL WEATHER SERVICE TWIN CITIES/CHANHASSEN MN
800 PM CDT SUN SEP 14 2014


NOTE: "FAIR" INDICATES FEW OR NO CLOUDS BELOW 12,000 FEET WITH NO
SIGNIFICANT WEATHER AND/OR OBSTRUCTIONS TO VISIBILITY. N/A MEANS
CURRENT SKY AND/OR WEATHER CONDITIONS ARE NOT AVAILABLE.

MNZ060>063-068>070-150200-
   Twin Cities Metro

CITY           SKY/WX    TMP DP  RH WIND       PRES   REMARKS
TWIN CITIES    MOCLDY    57  41  55 W5        30.12R
ST PAUL        MOCLDY    57  40  52 W7        30.12S
CRYSTAL        MOCLDY    56  42  59 W5        30.11S
BLAINE         MOCLDY    57  45  62 W5        30.11S
LAKEVILLE      CLOUDY    54  43  66 NW5       30.11F
EDEN PRAIRIE   MOCLDY    58  42  55 NW6       30.11S
SOUTH ST PAUL  MOCLDY    58  41  52 W3        30.11S
LAKE ELMO      FAIR      52  43  71 CALM      30.12S
$$
MNZ001>005-007-008-013>017-022>024-027-028-150200-
   Northwest Minnesota

CITY           SKY/WX    TMP DP  RH WIND       PRES   REMARKS
BEMIDJI        PTCLDY    48  42  82 SW3       30.10S
HALLOCK        CLOUDY    52  39  62 N6        30.12R
ROSEAU         CLOUDY    52  45  76 W6        30.09S
WARROAD        CLOUDY    48  45  87 CALM      30.09R
THIEF RVR FALL CLOUDY    50  43  76 NW3       30.11S
CROOKSTON      CLOUDY    50  45  81 NW5       30.13S
FOSSTON        CLOUDY    46  43  87 CALM      30.12S
DETROIT LAKES  MOCLDY    52  43  71 CALM      30.13S
MOORHEAD       CLOUDY    54  46  76 CALM      30.13S
PARK RAPIDS    CLEAR     43  39  86 W7        30.11S
MAHNOMEN       MOCLDY    47  42  83 W5        30.11S
$$
MNZ006-009>011-018-025>026-150200-
   North Central Minnesota

CITY           SKY/WX    TMP DP  RH WIND       PRES   REMARKS
BAUDETTE       CLOUDY    49  46  90 VRB3      30.08R
FLAG ISLAND    CLOUDY    50  45  81 NW14      30.06R
INTL FALLS     CLOUDY    48  44  86 NW7       30.05R
WASKISH        CLOUDY    52  45  76 W3        30.09R
BIG FORK       MOCLDY    52  43  71 W5        30.08R
LONGVILLE      CLEAR     45  43  93 CALM      30.10S
GRAND RAPIDS   MOCLDY    52  43  71 W6        30.08S
CRANE LAKE     CLEAR     43  41  93 CALM      30.06R
ORR            CLEAR     45  41  87 CALM      30.03S
COOK           CLEAR     45  43  93 CALM      30.06S
WALKER         FAIR      44  42  93 CALM      30.11R
$$
MNZ012-019>021-037-150200-
   Northeast Minnesota

CITY           SKY/WX    TMP DP  RH WIND       PRES   REMARKS
DULUTH         PTCLDY    48  41  76 W7        30.08R
ELY            MOCLDY    46  43  87 CALM      30.04S
HIBBING        MOCLDY    51  45  79 CALM      30.07R
EVELETH        PTCLDY    45  43  93 CALM      30.08R
DULUTH HARBOR  PTCLDY    55  46  71 SW7       30.09R
TWO HARBORS    CLOUDY    50  43  76 W3        30.06R
SILVER BAY     CLEAR     48  45  87 CALM      30.05R
GRAND MARAIS     N/A     49  45  86 W7        30.02R
G MARAIS ARPRT CLEAR     43  39  87 CALM      30.02R
$$
MNZ029>031-032-039>041-046>048-054>057-064-150200-
   West Central Minnesota

CITY           SKY/WX    TMP DP  RH WIND       PRES   REMARKS
FERGUS FALLS   MOCLDY    52  43  71 CALM      30.13R
WHEATON        MOCLDY    52  43  71 W3        30.14S
MORRIS         MOCLDY    54  43  66 W3        30.12S
ALEXANDRIA     PTCLDY    52  43  71 CALM      30.13S
ELBOW LAKE     MOCLDY    51  44  77 SW3       30.12S
WADENA         CLOUDY    48  45  87 CALM      30.12S
GLENWOOD       MOCLDY    54  45  71 CALM      30.12F
APPLETON       MOCLDY    54  45  71 CALM      30.12S
BENSON         MOCLDY    52  45  76 CALM      30.12F
ORTONVILLE     MOCLDY    54  43  66 CALM      30.12S
MADISON        MOCLDY    57  48  72 CALM      30.13R
WILLMAR        FAIR      54  46  76 CALM      30.14S
$$
MNZ033>034-036-042>043-049>051-058-059-150200-
   Central Minnesota

CITY           SKY/WX    TMP DP  RH WIND       PRES   REMARKS
ST CLOUD       MOCLDY    54  44  69 NW5       30.12S
SAUK CENTRE    FAIR      51  43  74 CALM      30.12S
PAYNESVILLE    CLOUDY    50  42  73 CALM      30.13S
AITKIN         MOCLDY    52  45  76 CALM      30.10R
PINE RIVER     PTCLDY    48  45  87 CALM      30.14S
BRAINERD       CLOUDY    51  44  77 W3        30.12S
STAPLES        CLOUDY    48  45  87 CALM      30.12S
LONG PRAIRIE   FAIR      46  43  87 CALM      30.13S
LITTLE FALLS   PTCLDY    46  43  87 CALM      30.12F
LITCHFIELD       N/A     54  48  82 CALM      30.13S
BUFFALO        MOCLDY    54  44  68 W3        30.13S
MAPLE LAKE     MOCLDY    54  47  76 NW6       30.14R
$$
MNZ037-044-045-052-053-150200-
   East Central Minnesota

CITY           SKY/WX    TMP DP  RH WIND       PRES   REMARKS
PRINCETON      PTCLDY    54  45  71 CALM      30.12R
MORA           PTCLDY    50  45  81 NW5       30.13R
CAMBRIDGE      PTCLDY    55  43  62 CALM      30.09S
RUSH CITY      MOCLDY    51  45  79 CALM      30.11S
MOOSE LAKE     CLOUDY    52  43  71 W3        30.09R
HINCKLEY       MOCLDY    52  45  76 CALM      30.10F
CLOQUET        PTCLDY    50  43  76 W5        30.09R
MCGREGOR       PTCLDY    50  43  76 SW3       30.10S
$$
MNZ071>073-080-081-089-090-097-098-150200-
   Southwest Minnesota

CITY           SKY/WX    TMP DP  RH WIND       PRES   REMARKS
MONTEVIDEO     CLOUDY    54  46  76 CALM      30.13S
GRANITE FALLS  CLOUDY    53  48  85 S5        30.14F
CANBY          CLOUDY    52  46  78 W8        30.14S
MARSHALL       CLOUDY    50  45  81 SW5       30.13S
REDWOOD FALLS  CLOUDY    54  46  74 W9        30.14R
OLIVIA         CLOUDY    54  46  76 CALM      30.12S
PIPESTONE      MOCLDY    54  45  71 NE6       30.14R
WINDOM         MOCLDY    54  45  71 N3        30.13S
WORTHINGTON    MOCLDY    54  43  66 N7        30.14R
JACKSON        MOCLDY    55  43  62 N3        30.14R
TRACY          DRIZZLE   51  44  76 CALM      30.14S
SLAYTON        CLOUDY    51  45  78 CALM      30.14S
$$
MNZ065>067-074>077-082>085-091>093-150200-
   South Central Minnesota

CITY           SKY/WX    TMP DP  RH WIND       PRES   REMARKS
MANKATO        CLOUDY    55  43  62 N8        30.12S
NEW ULM        CLOUDY    54  46  76 NW7       30.13S
ST JAMES       CLOUDY    55  48  76 NW6       30.14R
FAIRMONT       CLOUDY    57  39  51 N5        30.12R
GLENCOE        CLOUDY    55  44  68 CALM      30.11F
FARIBAULT      CLOUDY    57  43  58 CALM      30.13R
OWATONNA       CLOUDY    55  46  71 N7        30.12R
WASECA         CLOUDY    50  45  81 CALM      30.13S
ALBERT LEA     MOCLDY    59  48  67 CALM      30.12S
$$
MNZ078>079-086>088-094>096-150200-
   Southeast Minnesota

CITY           SKY/WX    TMP DP  RH WIND       PRES   REMARKS
ROCHESTER      CLOUDY    58  44  60 NW8       30.13R
RED WING       CLOUDY    57  43  58 NW3       30.10S
STANTON        CLOUDY    56  47  71 CALM      30.10S
DODGE CENTER   CLOUDY    55  46  71 NW3       30.12S
WINONA         DRIZZLE   61  46  59 NW5       30.11R
AUSTIN         MOCLDY    57  48  72 CALM      30.12R
PRESTON        CLOUDY    58  54  86 W3        30.12S
$$
ABBREVIATIONS USED IN REMARKS
   TC - TEMPERATURES IN CELSIUS
  WCI - WIND CHILL INDEX
   HX - HEAT INDEX
  VSB - VISIBILITY
$$



USA.gov is the U.S. government's official web portal to all federal, state and local government web resources and services.